TimeMDT,TemperatureF,Dew PointF,Humidity,Sea Level PressureIn,VisibilityMPH,Wind Direction,Wind SpeedMPH,Gust SpeedMPH,PrecipitationIn,Events,Conditions,WindDirDegrees,DateUTC
12:55 AM,46.0,35.1,66,29.65,10.0,Calm,Calm,-,N/A,,Clear,0,2012-10-13 06:55:00
1:55 AM,43.0,34.0,71,29.64,10.0,Calm,Calm,-,N/A,,Clear,0,2012-10-13 07:55:00
2:55 AM,45.0,36.0,71,29.62,10.0,Calm,Calm,-,N/A,,Clear,0,2012-10-13 08:55:00
3:55 AM,46.0,36.0,68,29.64,10.0,SE,3.5,-,N/A,,Mostly Cloudy,130,2012-10-13 09:55:00
4:55 AM,46.9,37.0,68,29.65,10.0,WNW,3.5,-,N/A,,Partly Cloudy,300,2012-10-13 10:55:00
5:55 AM,55.0,37.9,53,29.61,10.0,NW,10.4,-,N/A,,Clear,310,2012-10-13 11:55:00
6:55 AM,55.9,37.0,49,29.63,10.0,NW,9.2,-,N/A,,Mostly Cloudy,320,2012-10-13 12:55:00
7:55 AM,55.9,37.0,49,29.67,10.0,Calm,Calm,-,N/A,,Clear,0,2012-10-13 13:55:00
8:55 AM,57.0,36.0,45,29.69,10.0,NW,8.1,-,N/A,,Clear,310,2012-10-13 14:55:00
9:55 AM,64.0,36.0,35,29.70,10.0,NNW,9.2,-,N/A,,Clear,330,2012-10-13 15:55:00
10:55 AM,66.0,36.0,33,29.71,10.0,NNW,10.4,-,N/A,,Clear,330,2012-10-13 16:55:00
11:55 AM,72.0,36.0,27,29.71,10.0,NNW,17.3,20.7,N/A,,Clear,330,2012-10-13 17:55:00
12:55 PM,73.0,35.1,25,29.71,10.0,WNW,6.9,-,N/A,,Clear,290,2012-10-13 18:55:00
1:55 PM,75.9,35.1,23,29.70,10.0,NNW,18.4,28.8,N/A,,Clear,340,2012-10-13 19:55:00
2:55 PM,75.9,33.1,21,29.70,10.0,North,19.6,27.6,N/A,,Clear,360,2012-10-13 20:55:00
3:55 PM,75.0,30.9,20,29.73,10.0,North,21.9,29.9,N/A,,Clear,350,2012-10-13 21:55:00
4:55 PM,73.0,30.9,21,29.75,10.0,North,16.1,28.8,N/A,,Clear,350,2012-10-13 22:55:00
5:55 PM,68.0,30.9,25,29.77,10.0,North,11.5,-,N/A,,Clear,350,2012-10-13 23:55:00
6:55 PM,62.1,30.9,31,29.81,10.0,North,11.5,-,N/A,,Clear,350,2012-10-14 00:55:00
7:55 PM,62.1,32.0,32,29.84,10.0,NNW,15.0,-,N/A,,Clear,330,2012-10-14 01:55:00
8:55 PM,62.1,33.1,34,29.86,10.0,NNW,15.0,-,N/A,,Clear,330,2012-10-14 02:55:00
9:55 PM,63.0,34.0,34,29.87,10.0,North,15.0,-,N/A,,Mostly Cloudy,350,2012-10-14 03:55:00
10:55 PM,60.1,34.0,38,29.90,10.0,North,10.4,-,N/A,,Scattered Clouds,360,2012-10-14 04:55:00
11:55 PM,57.0,33.1,40,29.92,10.0,NNW,6.9,-,N/A,,Scattered Clouds,330,2012-10-14 05:55:00